Theta_e
340 337 334 333 327 326 328 333 332 330 329 328 327 328 328 326 325 325 323 323 323 320
335 334 332 332 329 328 326 328 327 327 326 325 326 325 326 324 325 325 325 324 325 321
332 332 330 328 325 325 324 325 323 324 324 324 324 324 325 324 324 323 322 321 323 322
329 328 327 325 323 323 325 324 321 321 322 323 322 323 324 323 322 320 322 322 320 319
327 326 325 324 324 324 322 322 321 321 320 320 319 321 321 320 320 318 318 319 318 316
324 324 324 324 324 323 321 321 320 319 318 318 319 319 320 318 316 317 317 317 316 316
324 324 323 323 323 322 321 320 320 319 318 318 318 318 316 314 314 314 315 317 317 315
322 322 321 320 320 319 320 319 318 317 317 316 315 305 307 309 309 311 312 315 315 317
318 318 318 318 318 317 317 317 316 315 313 312 304 297 297 299 304 307 311 312 314 313
314 313 314 315 315 315 312 313 312 311 310 307 304 295 295 296 303 307 311 312 310 308
311 312 313 312 311 310 310 310 310 310 310 304 300 294 293 294 306 309 310 308 307 307
311 310 311 310 308 308 308 308 308 307 306 304 299 293 292 294 303 304 303 305 306 305
309 309 308 308 306 307 307 307 306 305 304 300 300 291 291 292 298 298 297 304 302 294
308 308 307 306 305 305 304 303 302 300 301 301 298 297 291 291 292 292 293 299 300 299
Wind_Speed
15 11 11 11 10 13 2 2 2 4 5 4 4 2 2 5 4 2 5 7 6 7
9 8 9 11 10 8 12 5 5 4 4 4 2 3 4 5 5 3 6 6 8 6
12 12 12 11 11 10 6 6 4 4 3 2 1 3 5 6 5 5 6 7 7 8
13 12 11 12 11 10 8 6 5 3 2 1 3 4 6 7 8 6 8 8 9 10
14 13 12 11 11 9 7 4 4 3 2 4 4 5 6 8 8 8 8 8 7 9
14 12 12 11 10 7 6 5 4 3 3 4 5 7 6 7 8 9 8 7 7 9
13 11 11 9 8 6 3 2 1 2 5 5 6 7 8 10 11 12 11 9 9 10
11 10 10 8 7 5 2 2 3 4 5 8 6 10 10 11 12 13 13 11 11 7
10 10 8 6 5 3 3 6 7 7 6 9 8 11 13 13 12 13 13 9 8 9
9 9 8 7 8 9 7 6 5 5 6 10 9 13 14 17 12 12 10 8 8 8
10 9 8 10 7 6 5 4 4 5 5 9 10 15 17 22 12 11 9 10 9 8
9 9 8 11 6 6 4 6 5 5 8 8 9 17 19 19 12 11 10 9 9 7
10 9 9 8 8 7 6 7 6 7 8 9 7 15 17 17 9 10 9 8 3 14
10 9 9 9 8 7 6 6 5 4 3 5 6 9 13 16 10 9 9 7 7 7
Wind_Direction
128 132 134 145 125 118 132 18 6 101 111 128 136 155 186 230 245 274 273 288 286 297
131 131 115 108 107 102 123 154 216 108 98 95 65 358 341 275 291 300 283 297 263 281
117 115 112 110 105 116 95 101 158 123 111 86 22 320 321 321 312 315 299 302 320 302
121 117 115 110 109 112 107 157 144 134 181 286 310 325 323 309 284 302 301 307 302 323
119 115 109 111 110 124 135 132 109 69 302 307 327 320 308 302 317 315 321 321 309 283
110 107 108 108 111 120 129 133 168 208 281 326 330 306 300 321 339 315 317 300 309 300
104 108 105 107 110 107 95 95 332 320 315 309 320 335 15 346 334 319 315 312 303 302
99 101 98 95 93 94 79 18 323 307 309 42 20 29 6 347 327 316 307 304 300 354
101 97 96 95 87 81 30 21 352 28 25 38 56 34 23 356 322 306 301 306 328 347
93 87 87 81 63 39 37 23 35 39 30 69 57 24 11 352 310 300 304 314 359 333
81 80 74 71 65 59 60 47 41 38 9 82 57 27 14 345 313 306 354 0 339 325
78 67 60 64 55 41 32 46 22 30 34 44 52 34 13 347 334 352 350 337 347 21
65 68 61 51 50 36 21 44 15 21 52 56 32 46 18 -0 348 351 336 326 91 59
86 74 68 66 51 46 46 42 38 32 8 60 31 56 26 3 359 350 327 331 341 351